Location: Unspecified
(0.0000°N, 0.0000°E)
Time: 16:35:47
(UTC+00:00)

Courier 1B Rocket - Pass Details

Date: 12 April 2021
Orbit: 920 x 1202 km, 28.3° (Epoch: 14 May)

Event Time Altitude Azimuth Distance (km) Brightness Sun altitude
Exits shadow 04:07:15 - 333° (NNW) 3,404 7.7 -28.0°
Reaches altitude 10° 04:08:37 10° 340° (NNW) 3,079 7.5 -27.7°
Maximum altitude 04:13:48 19° 23° (NNE) 2,406 7.4 -26.4°
Drops below altitude 10° 04:18:47 10° 66° (ENE) 2,966 8.5 -25.2°
Sets 04:22:24 0° 83° (E) 3,871 9.6 -24.3°
